"Pseudo-MPEC" for P112XIn

Created 2020 Aug 6 7:07:08 UT using Find_Orb

Click here for an explanation of pseudo-MPECs

 
 Astrometry: 
     P112XIn  C2020 07 21[NShUSAstrometrys0[-7'm@redacted;16p$ddk`*A(clickyFUF51
     P112XIn  C2020 07 21WTj,-X;here`QKA^c+)3A_^EJHjd,1l+2!=fk#M#g.ibGRfordR5F51
     P112XIn  C2020 07 21RtO6sy^d=kOcPadm'/JT2hA@X)AdHtTexplanationn)6A\t+y?[F51
     P112XIn ^C2020 07 24.30834014 49 16.611+10 48 10.63   ~7OKM 21.95GVNEOCP568
     P112XIn ^C2020 07 24.30951914 49 16.621+10 48 10.05   ~7OKM 22.04GVNEOCP568
     P112XIn ^C2020 07 24.31069914 49 16.624+10 48 09.56   ~7OKM 22.07GVNEOCP568

Station data:
(568) Mauna Kea  (N19.826116 W155.472200)  US/Hawaii.
(F51) Pan-STARRS 1, Haleakala  (N20.707235 W156.255910)  US/Hawaii.
   Observers N. Primak, A. Schultz, S. Watters, J. Thiel, T. Goggia. Measurer
   PS1 Science Consortium. 1.8-m Ritchey-Chrétien + CCD.

Orbital elements:  P112XIn
   Perihelion 2023 Oct 7.315462 +/- 426 TT =  7:34:15 (JD 2460224.815462)
Epoch 2020 Jul 24.0 TT = JDT 2459054.5   Ju: 0.1710           AutoNEOCP
M 260.53952915 +/- 90               (J2000 ecliptic)
n   0.08498603 +/- 0.178            Peri.  243.45082 +/- 60
a   5.12355029 +/- 7.17             Node    88.47891 +/- 58
e   0.0900559 +/- 0.192             Incl.   35.83659 +/- 22
P  11.60                   H 14.5   G  0.15   U 11.6  SR
q 4.66214430 +/- 1.79    Q 5.58495628 +/- 61.3
From 6 observations 2020 July 21-24; mean residual 0".05
Residuals in arcseconds: 
200721 F51  .04+  .07+    200721 F51  .09-  .05-    200724 568  .03+  .03-    
200721 F51  .05+  .02-    200724 568  .04-  .01+    200724 568  .00   .02+    

Ephemerides (geocentric):
Date (UTC) HH   RA              Dec         delta   r     elong  mag " sig PA
---- -- -- --  -------------   -----------  ------ ------ -----  --- ---- ---
2020 08 06 07  14 51 18.512   +09 07 14.44  5.2388 5.2301  84.0 22.4  806  17
2020 08 06 08  14 51 19.083   +09 06 54.73  5.2394 5.2301  83.9 22.4  811  17
2020 08 06 09  14 51 19.655   +09 06 35.02  5.2400 5.2301  83.9 22.4  815  17
2020 08 06 10  14 51 20.228   +09 06 15.31  5.2405 5.2300  83.9 22.4  820  17
2020 08 06 11  14 51 20.802   +09 05 55.59  5.2411 5.2300  83.8 22.4  824  17
2020 08 06 12  14 51 21.378   +09 05 35.88  5.2416 5.2300  83.8 22.4  829  17
2020 08 06 13  14 51 21.954   +09 05 16.17  5.2422 5.2300  83.8 22.4  833  17
2020 08 06 14  14 51 22.532   +09 04 56.45  5.2427 5.2299  83.7 22.4  838  17
2020 08 06 15  14 51 23.111   +09 04 36.73  5.2433 5.2299  83.7 22.4  842  17
2020 08 06 16  14 51 23.691   +09 04 17.01  5.2439 5.2299  83.7 22.4  847  17
2020 08 06 17  14 51 24.272   +09 03 57.29  5.2444 5.2298  83.6 22.4  852  17
2020 08 06 18  14 51 24.854   +09 03 37.57  5.2450 5.2298  83.6 22.4  856  17
2020 08 06 19  14 51 25.437   +09 03 17.85  5.2455 5.2298  83.6 22.4  861  17
2020 08 06 20  14 51 26.021   +09 02 58.13  5.2461 5.2298  83.5 22.4  866  17
2020 08 06 21  14 51 26.607   +09 02 38.40  5.2466 5.2297  83.5 22.4  870  17
2020 08 06 22  14 51 27.193   +09 02 18.68  5.2472 5.2297  83.5 22.4  875  17
2020 08 06 23  14 51 27.781   +09 01 58.95  5.2478 5.2297  83.4 22.4  879  17
2020 08 07 00  14 51 28.370   +09 01 39.23  5.2483 5.2297  83.4 22.4  884  17
2020 08 07 01  14 51 28.960   +09 01 19.50  5.2489 5.2296  83.4 22.4  889  17
2020 08 07 02  14 51 29.551   +09 00 59.77  5.2494 5.2296  83.3 22.4  893  17
2020 08 07 03  14 51 30.143   +09 00 40.04  5.2500 5.2296  83.3 22.4  898  17
2020 08 07 04  14 51 30.736   +09 00 20.31  5.2505 5.2295  83.3 22.4  903  17
2020 08 07 05  14 51 31.330   +09 00 00.57  5.2511 5.2295  83.2 22.4  908  17
2020 08 07 06  14 51 31.926   +08 59 40.84  5.2517 5.2295  83.2 22.4  912  17
2020 08 07 07  14 51 32.522   +08 59 21.10  5.2522 5.2295  83.2 22.4  917  17
2020 08 07 08  14 51 33.120   +08 59 01.37  5.2528 5.2294  83.1 22.4  922  17
2020 08 07 09  14 51 33.719   +08 58 41.63  5.2533 5.2294  83.1 22.4  927  17
2020 08 07 10  14 51 34.319   +08 58 21.89  5.2539 5.2294  83.1 22.4  931  17
2020 08 07 11  14 51 34.920   +08 58 02.15  5.2544 5.2294  83.0 22.4  936  17
2020 08 07 12  14 51 35.522   +08 57 42.41  5.2550 5.2293  83.0 22.4  941  17
2020 08 07 13  14 51 36.125   +08 57 22.67  5.2556 5.2293  83.0 22.4  946  17
2020 08 07 14  14 51 36.729   +08 57 02.93  5.2561 5.2293  82.9 22.4  951  17
2020 08 07 15  14 51 37.335   +08 56 43.19  5.2567 5.2292  82.9 22.4  956  17
2020 08 07 16  14 51 37.941   +08 56 23.44  5.2572 5.2292  82.9 22.4  960  17
2020 08 07 17  14 51 38.549   +08 56 03.70  5.2578 5.2292  82.8 22.4  965  17
2020 08 07 18  14 51 39.157   +08 55 43.95  5.2584 5.2292  82.8 22.4  970  17
2020 08 07 19  14 51 39.767   +08 55 24.21  5.2589 5.2291  82.8 22.4  975  17
2020 08 07 20  14 51 40.378   +08 55 04.46  5.2595 5.2291  82.7 22.4  980  17
2020 08 07 21  14 51 40.990   +08 54 44.71  5.2600 5.2291  82.7 22.4  985  17
2020 08 07 22  14 51 41.603   +08 54 24.96  5.2606 5.2291  82.7 22.4  990  17
2020 08 07 23  14 51 42.218   +08 54 05.21  5.2611 5.2290  82.6 22.4  995  17
2020 08 08 00  14 51 42.833   +08 53 45.45  5.2617 5.2290  82.6 22.4 1000  17
2020 08 08 01  14 51 43.449   +08 53 25.70  5.2622 5.2290  82.6 22.4 1005  17
2020 08 08 02  14 51 44.067   +08 53 05.95  5.2628 5.2289  82.6 22.4 1009  17
2020 08 08 03  14 51 44.685   +08 52 46.19  5.2634 5.2289  82.5 22.4 1014  17
2020 08 08 04  14 51 45.305   +08 52 26.44  5.2639 5.2289  82.5 22.4 1019  17
2020 08 08 05  14 51 45.926   +08 52 06.68  5.2645 5.2289  82.5 22.4 1024  17
2020 08 08 06  14 51 46.548   +08 51 46.92  5.2650 5.2288  82.4 22.4 1029  17